Starlink 1992

operational
NORAD ID: 47632 Int'l Des: 2021-012 Owner: SPXS Country: US Constellation: starlink
LEOCIRCULARSTARLINK_TYPE

关于 Starlink 1992

正在加载描述...

实时位置

正在加载3D地球...

即将过境

高度历史

Altitude vs Time

uPlot chart will show altitude changes over time

两行轨道根数

1 47632U 21012N 26033.57762173 .00101048 00000-0 66224-2 0 9996
2 47632 53.0555 134.2431 0001376 99.5537 260.5608 15.06865654276008
Epoch: Feb 2, 2026 • Age: 10 hours

当前状态

高度 547.5 km
速度 7.59 km/s
星下点 35.91°N, 146.35°E
发射日期 Feb 16, 2021
运行时间 4.9 years
类型 internet

技术详情

分类 Payload
质量 260.00 kg
干质量 248.00 kg
总质量 260.00 kg
长度 0.20 m
直径 2.80 m
跨度 9.00 m
形状 Box + pan
制造商 SPXS
平台类型 Starlink
阶段状态 In Orbit
所有者/国家 SPXS/US

大型星座

Loading constellations...